sat.trackr.live / text

‹ back to catalog

ONEWEB-0304

NORAD 49092 · 2021-075T

PAYLOAD ACTIVE UNKNOWN

§ Identity

Operator
Country
UK
Launch date
2021-08-21
Launch site
TYMSC
Launch vehicle
Mass (kg)
RCS (m²)

Purposes: comms

External: N2YO · Heavens-Above · Gunter

§ Orbital elements

Epoch: 2026-05-25T02:00:35.130816Z

Period
109.29 min
Inclination
87.9154°
Eccentricity
0.0001863
Mean motion
13.17651375 rev/d
Perigee alt
1,192.3 km
Apogee alt
1,195.1 km
Semi-major
7,571.8 km
B*
1.8909e-4
RAAN
10.4649°
Arg perigee
89.1164°
Mean anomaly
271.0181°
Rev number
23,053

§ Raw data

ONEWEB-03041 49092U 21075T   26145.08373994  .00000086  00000+0  18909-3 0  99932 49092  87.9154  10.4649 0001863  89.1164 271.0181 13.17651375230533

JSON: /api/v1/satellites/49092 · /tle

For live sub-satellite position, see the globe view (requires WebGL).

§ Visibility from observer

Set your observer location to see the next 7 days of passes ≥ 10°. The values pass through the URL so the page stays shareable.

No JS? Fill the form by hand. The geolocation button needs JavaScript.